Weather History for KCQM - May, 2014

Change the Weather History Date:

Sunday, May 25, 2014

  Actual Average Record
Temperature  
Mean Temperature 72 °F -  
Max Temperature 82 °F 63 °F 82 °F (2006)
Min Temperature 62 °F 38 °F 30 °F (2011)
Cooling Degree Days 7    
Growing Degree Days 22 (Base 50)    
Moisture  
Dew Point 47 °F    
Average Humidity 42    
Maximum Humidity 64    
Minimum Humidity 23    
Precipitation  
Precipitation 0.00 in - - ()
Sea Level Pressure  
Sea Level Pressure 29.94 in    
Wind  
Wind Speed 7 mph (SSW)    
Max Wind Speed 16 mph    
Max Gust Speed 25 mph    
Visibility 10 miles    
Events      
Averages and records for this station are not official NWS values.
T = Trace of Precipitation, MM = Missing Value Source: NWS Daily Summary

Daily Weather History Graph

Daily Weather History Graph

Search for Another Location

Airport or City:

Trip Planner

Search our weather history database for the weather conditions in past years. The results will help you decide how hot, cold, wet, or windy it might be!

Date:

Astronomy

May. 25, 2014 Rise Set
Actual Time 5:21 AM CDT 8:54 PM CDT
Civil Twilight 4:43 AM CDT 9:33 PM CDT
Nautical Twilight 3:51 AM CDT 10:24 PM CDT
Astronomical Twilight 2:42 AM CDT 11:35 PM CDT
Moon 3:42 AM CDT (5/25) 5:42 PM CDT (5/25)
Length of Visible Light 16h 49m
Length of Day
15h 32m
Waning Crescent, 10% of the Moon is Illuminated
May 25
Waning Crescent
May 28
New
Jun 5
First Quarter
Jun 12
Full
Jun 19
Last Quarter

Hourly Weather History & Observations

Time (CDT) Temp. Dew Point Humidity Pressure Visibility Wind Dir Wind Speed Gust Speed Precip Events Conditions
12:15 AM 69.8 °F 46.4 °F 43% 30.01 in 10.0 mi SSW 6.9 mph - N/A   Clear
12:35 AM 68.0 °F 46.4 °F 46% 30.00 in 10.0 mi SSW 6.9 mph - N/A   Clear
1:15 AM 66.2 °F 46.4 °F 49% 30.01 in 10.0 mi SSW 4.6 mph - N/A   Clear
1:35 AM 66.2 °F 46.4 °F 49% 30.01 in 10.0 mi SSW 4.6 mph - N/A   Clear
1:54 AM 66.2 °F 46.4 °F 49% 30.01 in 10.0 mi SSW 3.5 mph - N/A   Clear
2:15 AM 64.4 °F 46.4 °F 52% 30.01 in 10.0 mi South 3.5 mph - N/A   Clear
2:35 AM 64.4 °F 46.4 °F 52% 30.01 in 10.0 mi South 3.5 mph - N/A   Clear
2:54 AM 64.4 °F 48.2 °F 56% 30.01 in 10.0 mi Calm Calm - N/A   Clear
3:15 AM 64.4 °F 48.2 °F 56% 30.01 in 10.0 mi South 3.5 mph - N/A   Clear
3:35 AM 62.6 °F 46.4 °F 55% 30.01 in 10.0 mi South 4.6 mph - N/A   Clear
3:55 AM 62.6 °F 46.4 °F 55% 30.00 in 10.0 mi South 4.6 mph - N/A   Clear
4:15 AM 62.6 °F 46.4 °F 55% 29.99 in 10.0 mi South 5.8 mph - N/A   Clear
4:35 AM 62.6 °F 46.4 °F 55% 29.99 in 10.0 mi SSW 5.8 mph - N/A   Clear
4:55 AM 62.6 °F 46.4 °F 55% 29.99 in 10.0 mi SSW 5.8 mph - N/A   Clear
5:15 AM 62.6 °F 46.4 °F 55% 29.99 in 10.0 mi SSW 3.5 mph - N/A   Clear
5:34 AM 62.6 °F 46.4 °F 55% 30.00 in 10.0 mi South 4.6 mph - N/A   Clear
5:55 AM 62.6 °F 46.4 °F 55% 30.00 in 10.0 mi South 3.5 mph - N/A   Clear
6:15 AM 62.6 °F 46.4 °F 55% 30.00 in 10.0 mi Calm Calm - N/A   Clear
6:34 AM 62.6 °F 46.4 °F 55% 30.00 in 10.0 mi South 3.5 mph - N/A   Clear
6:55 AM 62.6 °F 46.4 °F 55% 30.00 in 10.0 mi SSW 4.6 mph - N/A   Clear
7:15 AM 64.4 °F 46.4 °F 52% 30.01 in 10.0 mi SSW 6.9 mph - N/A   Clear
7:34 AM 64.4 °F 46.4 °F 52% 30.01 in 10.0 mi SSW 4.6 mph - N/A   Clear
7:55 AM 66.2 °F 46.4 °F 49% 30.01 in 10.0 mi SSW 8.1 mph - N/A   Clear
8:15 AM 68.0 °F 46.4 °F 46% 30.01 in 10.0 mi SSW 8.1 mph - N/A   Clear
8:34 AM 69.8 °F 46.4 °F 43% 30.00 in 10.0 mi SSW 8.1 mph - N/A   Clear
8:55 AM 69.8 °F 44.6 °F 40% 30.00 in 10.0 mi SSW 5.8 mph - N/A   Clear
9:15 AM 71.6 °F 44.6 °F 38% 29.99 in 10.0 mi WSW 8.1 mph - N/A   Clear
10:15 AM 75.2 °F 44.6 °F 34% 29.98 in 10.0 mi SSW 5.8 mph - N/A   Clear
10:34 AM 78.8 °F 44.6 °F 30% 29.97 in 10.0 mi SSW 6.9 mph - N/A   Clear
10:55 AM 78.8 °F 44.6 °F 30% 29.97 in 10.0 mi SSW 8.1 mph - N/A   Clear
11:14 AM 80.6 °F 44.6 °F 28% 29.97 in 10.0 mi South 9.2 mph - N/A   Clear
11:35 AM 80.6 °F 44.6 °F 28% 29.96 in 10.0 mi SSW 9.2 mph - N/A   Clear
11:55 AM 80.6 °F 44.6 °F 28% 29.96 in 10.0 mi SW 8.1 mph - N/A   Clear
12:15 PM 80.6 °F 44.6 °F 28% 29.95 in 10.0 mi SSW 8.1 mph 17.3 mph N/A   Clear
12:35 PM 80.6 °F 44.6 °F 28% 29.94 in 10.0 mi SSW 4.6 mph - N/A   Clear
12:54 PM 80.6 °F 44.6 °F 28% 29.94 in 10.0 mi SSW 6.9 mph 18.4 mph N/A   Clear
1:15 PM 82.4 °F 46.4 °F 28% 29.93 in 10.0 mi SSE 8.1 mph 16.1 mph N/A   Clear
1:35 PM 82.4 °F 46.4 °F 28% 29.92 in 10.0 mi SSE 13.8 mph 19.6 mph N/A   Clear
1:55 PM 82.4 °F 46.4 °F 28% 29.91 in 10.0 mi SSE 8.1 mph 24.2 mph N/A   Clear
2:14 PM 82.4 °F 44.6 °F 26% 29.90 in 10.0 mi SSW 9.2 mph 23.0 mph N/A   Clear
2:35 PM 82.4 °F 42.8 °F 25% 29.90 in 10.0 mi SSE 9.2 mph 19.6 mph N/A   Clear
2:55 PM 82.4 °F 41.0 °F 23% 29.90 in 10.0 mi South 13.8 mph 20.7 mph N/A   Clear
3:14 PM 82.4 °F 42.8 °F 25% 29.89 in 10.0 mi South 12.7 mph 19.6 mph N/A   Clear
3:35 PM 82.4 °F 42.8 °F 25% 29.89 in 10.0 mi South 12.7 mph 21.9 mph N/A   Clear
3:55 PM 82.4 °F 42.8 °F 25% 29.89 in 10.0 mi SW 11.5 mph 17.3 mph N/A   Clear
4:35 PM 82.4 °F 41.0 °F 23% 29.89 in 10.0 mi SSW 11.5 mph 25.3 mph N/A   Clear
4:54 PM 82.4 °F 44.6 °F 26% 29.88 in 10.0 mi SSW 15.0 mph 20.7 mph N/A   Clear
5:15 PM 80.6 °F 44.6 °F 28% 29.88 in 10.0 mi SSW 12.7 mph 17.3 mph N/A   Clear
5:35 PM 82.4 °F 46.4 °F 28% 29.89 in 10.0 mi SSW 15.0 mph 18.4 mph N/A   Clear
5:55 PM 80.6 °F 46.4 °F 30% 29.89 in 10.0 mi SW 12.7 mph 18.4 mph N/A   Clear
6:15 PM 80.6 °F 39.2 °F 23% 29.88 in 10.0 mi SSW 16.1 mph - N/A   Clear
6:35 PM 80.6 °F 42.8 °F 26% 29.88 in 10.0 mi SW 9.2 mph 17.3 mph N/A   Clear
6:55 PM 78.8 °F 42.8 °F 28% 29.88 in 10.0 mi SSW 11.5 mph 19.6 mph N/A   Clear
7:14 PM 78.8 °F 44.6 °F 30% 29.88 in 10.0 mi SSW 11.5 mph 18.4 mph N/A   Clear
7:35 PM 77.0 °F 46.4 °F 34% 29.88 in 10.0 mi SSW 8.1 mph - N/A   Clear
7:54 PM 75.2 °F 48.2 °F 38% 29.88 in 10.0 mi SSW 6.9 mph - N/A   Clear
8:15 PM 75.2 °F 51.8 °F 44% 29.88 in 10.0 mi SSW 8.1 mph - N/A   Clear
8:35 PM 73.4 °F 51.8 °F 47% 29.88 in 10.0 mi South 5.8 mph - N/A   Clear
8:55 PM 73.4 °F 51.8 °F 47% 29.88 in 10.0 mi South 8.1 mph - N/A   Clear
9:14 PM 71.6 °F 53.6 °F 53% 29.89 in 10.0 mi South 5.8 mph - N/A   Clear
9:34 PM 71.6 °F 53.6 °F 53% 29.89 in 10.0 mi South 4.6 mph - N/A   Clear
9:55 PM 71.6 °F 53.6 °F 53% 29.89 in 10.0 mi SSW 5.8 mph - N/A   Clear
10:15 PM 69.8 °F 53.6 °F 56% 29.89 in 10.0 mi South 4.6 mph - N/A   Clear
10:35 PM 69.8 °F 53.6 °F 56% 29.89 in 10.0 mi South 4.6 mph - N/A   Clear
10:55 PM 69.8 °F 53.6 °F 56% 29.88 in 10.0 mi South 5.8 mph - N/A   Clear
11:15 PM 69.8 °F 55.4 °F 60% 29.88 in 10.0 mi SSW 4.6 mph - N/A   Clear
11:35 PM 68.0 °F 55.4 °F 64% 29.88 in 10.0 mi South 3.5 mph - N/A   Clear
11:55 PM 68.0 °F 55.4 °F 64% 29.88 in 10.0 mi SSW 4.6 mph - N/A   Clear